Temp
14 15 15 15 16 16 16 16 17 18 17 16 17 17 17 17 17 17 17 18 17 16 15 14 14 13 13 13 12 12 11 10 10 10 10 10 9 9 9 9 9 9 9 8
14 14 15 15 15 15 16 16 17 18 17 17 18 18 18 18 18 18 18 18 17 16 15 14 14 13 13 12 12 12 11 11 11 11 10 10 9 9 9 9 9 9 8 8
14 15 15 15 15 16 16 16 18 18 18 18 18 19 19 18 19 19 18 17 17 16 16 14 14 13 13 12 12 12 10 10 10 10 10 10 10 10 9 9 9 9 8 8
14 16 15 16 16 16 16 17 18 18 17 17 18 17 18 19 19 19 18 17 17 16 15 15 14 13 13 12 11 11 11 11 10 10 10 10 10 10 9 9 8 8 8 8
15 15 15 15 16 16 17 18 18 18 17 17 17 16 18 18 18 19 18 17 17 16 15 15 14 14 12 12 11 11 11 11 10 10 10 10 10 10 9 9 8 8 8 8
15 15 15 16 16 16 17 17 18 17 17 15 17 17 18 18 18 18 18 18 17 17 16 15 14 14 13 12 11 10 10 11 10 10 10 10 10 10 9 9 8 8 8 7
15 15 15 15 16 16 17 17 16 14 12 13 17 16 18 18 19 18 17 18 17 16 16 15 14 14 13 12 11 11 11 10 10 10 10 10 10 9 8 8 7 7 7 7
15 15 16 16 16 16 17 17 17 13 11 14 17 17 18 18 18 18 18 17 17 16 15 14 12 13 13 13 11 11 11 10 10 10 10 10 10 9 8 7 7 6 6 7
15 15 15 16 16 16 17 17 17 17 14 14 16 17 18 17 17 18 17 17 17 17 16 15 13 12 12 12 12 12 11 11 11 10 10 10 10 9 8 6 6 6 6 7
15 15 16 16 16 16 17 17 16 16 12 13 15 16 17 17 17 17 17 17 17 17 15 14 11 11 11 11 12 12 11 11 11 10 10 10 10 9 9 8 7 6 7 7
15 15 16 16 16 17 17 16 17 16 16 11 10 16 16 17 17 17 17 17 17 15 15 13 12 12 11 10 11 12 11 11 11 10 10 10 10 9 8 8 8 8 8 8
15 15 15 16 16 16 16 17 17 16 16 15 15 17 16 17 17 17 16 16 15 14 14 13 11 12 10 10 11 11 11 10 11 11 10 10 9 9 8 8 8 8 8 8
16 15 15 16 16 16 16 17 16 16 17 16 14 17 17 16 16 16 15 15 14 15 16 15 12 11 12 11 11 11 10 11 10 11 10 9 9 9 8 8 8 8 8 8
14 15 15 15 16 16 16 16 15 16 16 16 16 16 17 17 17 17 16 15 15 15 14 14 14 13 12 10 10 11 10 10 10 10 10 9 9 9 8 7 7 7 7 7
14 14 14 15 14 15 15 16 15 16 15 15 15 16 16 17 17 17 16 16 16 15 14 13 13 13 11 11 11 11 11 10 10 10 10 9 9 9 9 8 7 7 7 7
13 14 14 14 14 14 15 15 16 15 15 15 15 16 15 16 16 16 16 15 15 14 13 13 12 11 11 12 11 11 11 11 10 10 10 9 8 8 8 8 8 6 5 5
12 13 13 14 13 14 15 14 15 15 14 14 14 15 15 16 16 16 15 15 15 15 13 13 12 12 12 12 12 12 11 11 10 10 10 9 8 8 8 7 7 7 5 5
12 12 12 13 13 12 13 13 13 13 13 13 13 14 15 16 15 15 15 15 14 14 13 13 12 11 12 12 12 11 11 11 10 10 10 9 9 8 8 7 7 7 7 5
11 11 11 12 12 12 13 12 12 12 12 13 13 14 15 15 14 14 14 14 14 14 13 11 11 11 12 11 11 12 12 11 10 10 10 9 9 9 8 8 7 7 7 6
11 11 11 11 11 10 10 12 11 12 12 11 12 13 14 15 14 14 13 13 13 12 11 10 11 10 11 10 11 11 11 10 10 10 10 10 9 9 8 8 8 7 7 6
10 11 11 11 11 10 10 11 11 11 11 11 11 12 13 13 12 12 12 12 11 10 10 11 10 9 8 9 10 10 10 10 10 10 9 9 9 8 8 8 8 8 7 7
9 9 9 9 10 9 9 9 10 8 9 10 10 11 11 11 9 10 10 10 10 10 10 10 9 10 8 9 9 10 9 9 10 9 8 8 8 8 7 8 8 7 7 7
7 7 7 7 6 7 7 8 8 8 9 9 9 9 10 9 9 9 9 9 9 9 9 9 9 9 10 8 9 8 9 9 9 8 8 8 8 8 8 7 7 8 7 6
6 6 6 6 6 6 6 7 7 7 8 9 10 9 9 9 10 9 10 9 9 9 7 9 9 9 9 9 9 9 9 9 9 8 8 8 8 8 8 8 7 7 7 7
6 6 6 5 6 6 6 6 7 8 8 8 8 9 9 9 9 9 9 9 9 7 7 8 8 9 10 10 9 9 8 8 9 8 8 8 8 8 8 8 7 7 7 7
5 5 5 5 5 5 5 6 7 7 8 8 8 8 9 9 9 9 9 8 7 6 6 7 7 7 8 9 8 8 8 8 8 8 8 7 8 8 8 8 8 7 7 8
Height
3179 3180 3179 3183 3186 3187 3188 3187 3186 3183 3183 3183 3183 3184 3183 3181 3181 3181 3180 3181 3185 3186 3187 3187 3187 3187 3188 3186 3185 3187 3187 3185 3183 3183 3181 3178 3176 3174 3170 3167 3165 3163 3164 3165
3177 3174 3178 3181 3182 3183 3184 3184 3182 3181 3182 3183 3179 3178 3181 3179 3176 3176 3175 3178 3183 3184 3185 3185 3185 3185 3187 3186 3186 3185 3184 3182 3182 3182 3179 3177 3175 3173 3172 3169 3168 3167 3165 3165
3173 3173 3176 3178 3179 3180 3180 3181 3178 3179 3177 3178 3175 3174 3175 3176 3175 3175 3174 3178 3180 3182 3183 3185 3184 3184 3185 3187 3186 3183 3182 3181 3182 3181 3179 3177 3174 3172 3170 3169 3168 3167 3166 3165
3169 3169 3172 3174 3174 3177 3176 3178 3177 3175 3176 3174 3174 3173 3171 3171 3172 3172 3172 3174 3176 3179 3183 3186 3185 3184 3185 3186 3183 3177 3174 3174 3178 3179 3178 3176 3174 3172 3170 3168 3167 3166 3166 3164
3165 3167 3170 3170 3170 3172 3172 3172 3172 3172 3173 3174 3173 3172 3169 3169 3169 3169 3168 3170 3174 3178 3181 3184 3185 3183 3184 3182 3172 3162 3166 3164 3172 3174 3174 3173 3171 3169 3167 3165 3166 3166 3165 3164
3162 3164 3166 3166 3166 3168 3169 3169 3170 3170 3171 3172 3170 3170 3167 3166 3166 3165 3166 3167 3172 3173 3177 3180 3182 3182 3183 3180 3163 3152 3135 3156 3173 3173 3171 3170 3167 3165 3163 3162 3162 3163 3163 3161
3159 3160 3162 3164 3165 3166 3167 3166 3167 3171 3172 3170 3168 3168 3165 3165 3163 3162 3162 3165 3168 3171 3173 3176 3178 3179 3180 3179 3172 3168 3155 3163 3174 3171 3169 3167 3164 3160 3159 3158 3157 3157 3158 3159
3156 3157 3157 3161 3163 3164 3163 3163 3164 3169 3169 3164 3163 3163 3163 3163 3161 3159 3160 3162 3163 3165 3167 3171 3167 3179 3181 3178 3178 3173 3170 3169 3171 3169 3167 3164 3161 3157 3155 3152 3151 3151 3154 3156
3153 3151 3154 3156 3159 3161 3159 3160 3162 3161 3162 3163 3161 3160 3160 3160 3159 3158 3157 3158 3161 3160 3159 3164 3170 3176 3175 3179 3174 3173 3170 3169 3169 3168 3166 3162 3159 3156 3149 3142 3144 3147 3150 3153
3149 3149 3151 3153 3155 3156 3156 3157 3157 3157 3162 3164 3158 3157 3156 3157 3157 3157 3157 3157 3157 3158 3160 3162 3157 3170 3172 3169 3170 3170 3170 3169 3167 3168 3165 3162 3159 3155 3149 3143 3143 3146 3149 3151
3145 3147 3147 3149 3151 3151 3153 3150 3151 3153 3155 3156 3160 3155 3154 3155 3155 3157 3155 3155 3157 3156 3160 3154 3150 3154 3159 3155 3164 3168 3169 3168 3166 3165 3166 3162 3159 3156 3152 3149 3149 3150 3150 3150
3139 3143 3142 3144 3147 3149 3149 3148 3148 3150 3151 3151 3152 3154 3151 3153 3153 3154 3154 3154 3156 3157 3158 3151 3140 3145 3138 3155 3163 3167 3168 3165 3164 3163 3164 3162 3160 3158 3155 3154 3153 3152 3152 3152
3133 3137 3140 3140 3144 3145 3145 3145 3145 3145 3146 3149 3150 3151 3151 3151 3151 3152 3153 3156 3156 3155 3153 3150 3146 3146 3151 3154 3165 3166 3167 3164 3162 3161 3162 3161 3159 3158 3156 3155 3154 3155 3154 3152
3131 3132 3135 3137 3139 3141 3142 3143 3144 3144 3144 3146 3147 3147 3148 3147 3149 3150 3150 3153 3153 3149 3149 3149 3146 3148 3153 3156 3163 3164 3166 3164 3162 3161 3161 3161 3159 3156 3154 3153 3153 3153 3153 3152
3131 3131 3132 3134 3136 3137 3138 3140 3141 3142 3142 3145 3142 3144 3145 3145 3146 3147 3148 3150 3150 3147 3146 3146 3145 3147 3151 3160 3163 3163 3162 3160 3161 3161 3160 3162 3160 3158 3155 3152 3153 3151 3149 3148
3129 3129 3130 3132 3134 3135 3134 3137 3138 3138 3138 3140 3138 3141 3143 3144 3143 3143 3145 3146 3147 3148 3149 3148 3148 3148 3153 3158 3161 3160 3157 3158 3160 3160 3160 3161 3159 3158 3156 3155 3153 3150 3150 3147
3129 3127 3128 3130 3131 3131 3133 3134 3135 3135 3135 3136 3137 3138 3140 3140 3140 3141 3143 3143 3144 3143 3146 3147 3148 3152 3154 3155 3156 3153 3152 3153 3155 3157 3157 3157 3157 3156 3156 3154 3153 3150 3149 3147
3126 3126 3127 3127 3128 3131 3132 3130 3132 3133 3132 3133 3135 3135 3136 3137 3138 3140 3141 3140 3139 3140 3144 3145 3148 3150 3150 3151 3150 3149 3149 3149 3151 3153 3153 3153 3154 3153 3153 3153 3152 3150 3150 3148
3124 3125 3126 3125 3125 3127 3128 3127 3129 3130 3132 3129 3128 3128 3130 3131 3134 3136 3138 3138 3137 3135 3137 3143 3148 3151 3150 3152 3149 3145 3146 3146 3147 3149 3150 3150 3151 3151 3151 3151 3151 3149 3147 3147
3120 3121 3124 3125 3125 3124 3125 3126 3127 3128 3130 3130 3126 3124 3124 3124 3126 3131 3132 3134 3135 3137 3137 3140 3142 3146 3150 3151 3152 3147 3144 3143 3144 3145 3149 3150 3149 3149 3150 3150 3150 3148 3147 3145
3115 3116 3118 3120 3120 3121 3121 3123 3125 3128 3132 3126 3124 3121 3119 3118 3120 3123 3127 3130 3130 3132 3134 3137 3137 3144 3147 3145 3149 3144 3147 3143 3141 3143 3147 3148 3148 3148 3147 3147 3147 3146 3145 3145
3114 3114 3115 3116 3116 3119 3119 3120 3125 3126 3124 3123 3122 3122 3120 3118 3117 3121 3123 3126 3129 3129 3135 3136 3138 3139 3139 3144 3146 3143 3147 3144 3138 3140 3142 3146 3147 3149 3145 3143 3142 3141 3141 3141
3114 3114 3114 3116 3118 3118 3118 3120 3121 3122 3122 3122 3121 3120 3121 3119 3119 3119 3121 3123 3127 3129 3130 3129 3130 3133 3134 3139 3143 3138 3139 3137 3133 3136 3139 3142 3141 3141 3143 3141 3139 3137 3136 3135
3114 3114 3114 3115 3116 3117 3118 3120 3120 3120 3120 3117 3118 3118 3117 3117 3117 3118 3117 3117 3117 3120 3124 3123 3122 3124 3127 3132 3136 3135 3137 3133 3132 3132 3134 3137 3137 3137 3137 3139 3137 3133 3132 3130
3114 3115 3115 3116 3116 3117 3117 3117 3118 3117 3116 3113 3112 3112 3111 3110 3110 3110 3111 3111 3109 3112 3115 3114 3114 3115 3120 3124 3128 3130 3130 3129 3128 3128 3131 3132 3131 3131 3132 3131 3132 3128 3127 3125
3113 3114 3114 3113 3114 3115 3115 3114 3112 3111 3110 3108 3106 3105 3104 3103 3100 3101 3100 3101 3102 3105 3105 3106 3106 3110 3113 3116 3119 3122 3123 3124 3124 3124 3127 3126 3126 3127 3124 3123 3124 3124 3122 3120
Wind_Speed
12 18 21 17 14 10 13 10 14 8 13 9 13 11 16 12 17 20 23 19 10 8 6 9 7 6 7 3 1 3 4 7 7 8 9 10 10 12 13 13 13 12 7 4
16 23 17 11 12 13 14 16 16 18 21 13 9 13 14 15 20 25 24 20 18 14 13 13 11 8 8 4 2 3 3 4 6 7 9 11 11 11 10 10 9 7 5 4
19 14 12 13 13 15 14 18 18 23 21 17 14 17 18 17 18 17 25 26 22 19 12 11 11 10 8 6 2 3 5 7 7 8 8 11 12 12 11 9 8 7 5 4
13 15 13 12 15 13 18 17 20 25 26 25 22 14 25 21 12 19 23 32 20 22 24 13 8 6 5 4 9 10 15 4 6 8 10 11 13 13 12 11 9 7 6 6
20 10 10 16 14 14 15 16 13 16 24 25 23 9 18 12 14 16 21 33 21 25 23 14 9 4 6 9 15 20 11 1 4 7 11 12 13 14 14 15 11 7 8 7
21 17 18 15 13 14 15 13 11 13 21 7 18 10 14 11 14 15 20 28 22 23 22 15 13 10 10 12 26 22 1 9 10 10 14 13 14 16 18 17 14 12 9 7
21 20 20 20 18 16 13 12 4 1 2 8 5 8 12 14 10 11 18 18 20 23 21 17 13 11 11 14 23 19 21 9 12 13 13 14 16 17 17 17 18 16 11 10
18 19 25 17 13 10 11 9 8 5 3 6 7 4 13 11 11 9 11 16 20 25 26 29 31 21 15 15 21 15 13 11 14 13 14 16 18 17 16 21 21 21 16 22
18 27 20 15 16 10 12 15 18 10 5 4 10 14 14 9 13 13 10 13 18 21 25 31 23 24 27 19 12 13 11 9 12 10 13 17 16 13 21 18 19 18 13 8
27 24 14 8 10 15 13 24 15 13 4 4 6 7 9 14 17 19 19 19 22 24 27 29 20 15 20 22 6 9 4 5 10 8 12 14 12 11 16 8 7 8 6 5
30 28 23 15 10 7 13 17 19 13 6 7 1 4 5 11 19 24 25 22 20 25 24 28 28 19 31 25 13 7 7 7 7 6 10 9 7 4 9 14 15 7 3 2
29 32 31 26 20 18 17 9 13 17 9 7 6 7 8 11 13 18 18 18 19 19 17 25 10 23 14 14 9 7 8 5 6 5 7 6 5 5 3 2 3 3 4 3
19 25 27 31 26 15 10 9 7 11 12 9 5 3 6 16 21 20 15 12 18 20 25 17 0 22 13 12 10 7 6 7 4 2 5 4 4 6 6 4 3 2 1 1
4 11 15 25 19 9 11 3 1 4 2 3 7 12 8 6 16 16 24 18 16 18 12 6 2 9 12 14 12 8 8 8 4 2 3 2 3 5 6 4 3 2 2 2
4 5 6 7 7 5 7 10 3 5 7 5 11 10 8 8 7 9 17 15 17 22 13 9 7 5 10 13 12 10 9 7 6 3 3 1 8 6 6 3 7 7 7 5
3 3 4 2 2 5 10 7 8 9 11 12 12 11 10 8 14 19 17 18 20 20 16 13 15 14 15 14 14 12 9 7 8 6 3 2 2 1 4 7 13 6 7 5
5 3 7 6 6 9 8 3 5 10 11 11 11 13 15 14 17 15 18 18 18 18 17 17 15 15 16 16 16 13 10 7 10 8 4 3 3 2 3 2 7 10 3 6
5 5 4 6 9 1 2 4 3 7 10 9 9 13 14 13 15 14 18 19 17 21 19 16 15 17 18 18 15 13 11 10 12 9 6 5 4 4 2 2 2 5 9 5
12 9 5 5 3 7 10 8 8 10 15 18 17 15 16 13 17 20 21 24 25 25 21 13 10 14 15 16 15 14 12 13 13 10 8 6 6 4 3 3 3 2 3 6
15 17 16 7 2 3 4 6 8 13 12 13 16 19 15 15 20 28 30 30 27 23 16 14 15 15 17 15 16 13 12 13 13 11 9 9 8 6 4 3 4 6 5 3
12 13 12 19 13 7 11 12 13 9 10 11 14 19 18 13 22 32 30 30 24 20 24 21 14 17 21 17 16 11 14 14 15 15 13 12 11 9 6 5 7 9 10 10
2 1 3 5 5 4 14 13 8 6 7 10 12 15 15 13 17 19 20 19 22 21 24 7 15 22 18 20 20 16 17 18 14 15 15 15 13 12 11 8 12 14 13 14
3 7 4 4 6 9 12 11 9 9 8 7 9 12 13 18 19 14 11 15 15 19 24 33 29 29 27 24 26 23 18 19 14 16 17 18 16 16 17 15 16 16 16 17
10 10 8 4 11 10 12 12 12 11 11 13 15 18 20 21 24 30 36 33 39 43 40 27 13 24 22 24 26 24 21 17 14 15 16 20 18 16 16 18 20 19 17 17
7 5 8 6 7 9 13 14 14 10 11 17 21 20 21 26 31 31 32 35 37 28 35 30 38 32 27 25 27 25 21 19 17 15 17 18 19 19 19 19 20 17 16 16
2 5 8 9 12 12 15 16 17 16 16 17 19 20 25 30 31 37 39 36 33 26 19 13 15 22 30 26 26 25 24 21 19 17 18 19 20 20 19 17 18 20 20 21
Wind_Direction
207 222 226 237 247 259 251 266 289 273 305 204 216 227 267 279 266 270 269 275 248 291 273 179 179 210 242 220 84 12 8 353 354 341 335 330 339 352 9 25 42 61 77 200
235 239 231 240 251 266 271 268 279 287 282 269 258 261 287 297 289 289 268 255 251 239 267 205 170 203 228 213 162 357 339 332 344 344 340 335 330 332 350 4 17 39 68 93
236 239 227 251 264 279 278 272 267 277 292 299 304 280 294 297 276 263 242 242 255 238 256 217 162 191 234 226 215 291 302 303 331 332 331 333 331 324 324 332 342 354 0 341
253 230 241 265 289 286 283 261 271 278 276 280 307 284 304 298 269 241 234 233 257 244 239 226 171 164 212 241 237 234 303 227 322 328 326 319 324 317 308 303 308 320 324 325
236 245 260 291 283 292 299 273 278 265 260 277 282 274 299 289 257 242 246 238 252 245 239 239 207 200 243 257 263 241 230 64 331 318 323 316 313 306 294 290 293 283 288 300
252 258 275 282 286 281 294 269 251 233 255 259 261 252 298 290 295 260 236 243 252 229 229 206 218 228 257 267 277 280 2 9 316 303 326 325 312 303 294 286 282 276 267 275
251 254 261 263 275 279 280 247 206 232 184 213 258 240 279 310 294 243 245 247 252 221 222 221 205 230 257 268 276 288 334 330 306 308 327 321 310 295 281 267 257 249 265 296
244 263 244 238 248 281 281 288 243 211 216 267 272 254 306 278 251 234 226 218 219 220 219 224 238 235 263 257 265 283 294 300 313 320 321 320 314 307 293 274 262 245 260 274
245 257 253 244 243 267 272 294 274 256 309 277 274 278 296 237 222 243 220 196 230 225 224 213 206 224 229 249 258 276 287 312 321 323 323 325 323 330 326 285 258 250 253 216
237 254 262 242 262 264 264 284 246 240 131 241 267 276 246 197 209 208 226 250 245 239 222 207 290 251 224 218 237 273 272 314 319 323 333 330 336 351 9 55 88 151 170 218
235 245 265 263 270 272 308 258 231 239 201 166 203 272 245 234 219 228 247 250 246 230 234 275 295 248 221 202 223 250 240 313 319 335 335 335 352 358 39 79 106 94 180 228
234 240 254 268 276 280 276 277 258 242 245 207 217 226 208 230 235 236 232 244 233 242 295 296 179 212 239 188 211 261 257 295 304 330 341 336 352 356 8 51 106 163 180 190
230 229 244 260 266 261 238 271 271 266 251 242 167 236 279 229 214 219 222 213 223 279 301 312 259 171 193 187 222 257 278 296 263 323 336 347 347 357 333 337 321 312 291 197
159 196 221 240 254 205 204 183 220 342 261 331 296 310 303 258 241 245 245 242 270 286 264 261 56 135 180 201 235 260 266 287 252 300 329 2 60 31 295 265 248 252 294 310
174 151 146 168 173 183 224 234 290 335 13 5 15 334 302 291 260 240 244 246 260 268 242 221 240 193 195 221 245 259 266 270 237 256 297 345 114 41 42 253 268 243 196 197
183 206 231 217 211 265 251 258 268 305 337 352 0 355 347 267 243 229 209 219 256 245 218 212 204 198 213 234 242 251 267 262 227 234 258 195 240 51 10 67 56 298 259 200
257 269 260 266 277 295 292 19 283 294 323 337 348 334 326 303 280 245 220 252 258 250 235 238 216 216 227 234 236 247 260 232 228 229 239 229 255 282 350 48 34 47 291 198
240 272 260 259 291 158 168 332 313 303 310 311 315 316 320 317 284 252 233 248 244 244 243 227 231 222 228 229 233 247 251 225 222 223 224 222 247 242 253 311 31 40 22 306
237 254 262 269 274 270 278 300 311 322 315 317 322 310 295 307 244 229 233 235 236 234 228 236 256 245 237 235 239 243 231 216 217 220 227 215 237 248 231 256 299 352 22 21
246 241 248 251 260 227 256 271 308 315 301 321 317 314 319 295 222 229 224 224 231 227 225 218 223 257 237 239 238 232 211 212 221 222 229 231 233 240 261 299 319 319 314 305
281 264 261 257 252 231 264 282 292 283 290 311 317 319 315 284 240 238 237 229 221 217 218 221 226 254 251 242 248 227 225 220 217 221 230 233 238 242 254 284 312 313 314 304
228 179 205 239 226 231 301 305 312 328 314 324 325 323 314 269 247 248 254 247 235 232 223 242 284 237 233 259 253 248 236 227 222 221 232 241 246 256 259 276 284 281 292 297
60 80 88 78 78 33 26 19 7 337 341 343 316 300 290 246 225 215 223 226 232 262 245 279 259 254 248 252 247 242 235 235 229 226 238 243 239 249 268 272 278 284 287 288
77 66 68 70 40 38 36 20 0 340 326 307 291 289 291 272 257 255 259 261 261 273 267 268 246 230 241 244 246 241 239 241 254 242 243 250 259 264 267 273 273 278 281 279
81 58 50 53 18 1 352 359 354 347 315 299 299 295 294 281 272 268 268 275 277 269 265 269 251 232 242 239 240 245 240 249 248 248 248 250 257 264 273 280 280 278 277 277
92 1 351 351 340 345 336 331 326 322 307 303 301 296 288 286 276 277 288 271 258 232 252 216 211 224 243 234 237 240 243 242 245 253 257 262 263 269 272 275 279 280 280 276